FW4518 Weather Reports


time (UTC)temp
F
wind
direction
speed
knots
gust
knots
rain 1hr
in
rain 24hr
in
rain mn
in
humidity
%
barometer
mb
20260505092654 48 0.0 0.0 0.00 0.00 0.00 77 1013.1
20260505091634 48 0.0 0.0 0.00 0.00 0.00 76 1013.0
20260505090714 49 0.0 0.0 0.00 0.00 0.00 73 1012.9
20260505085634 50 0.0 0.0 0.00 0.00 0.00 72 1012.9
20260505084634 51 0.0 0.0 0.00 0.00 0.00 69 1012.8
20260505083634 52 0.0 0.9 0.00 0.00 0.00 65 1012.7
20260505082634 52 0.0 0.9 0.00 0.00 0.00 67 1012.7
20260505081634 54 0.0 0.0 0.00 0.00 0.00 61 1012.7
20260505080634 56 266 0.0 1.7 0.00 0.00 0.00 57 1012.6
20260505075655 57 0.0 0.0 0.00 0.00 0.00 56 1012.6
20260505074635 59 353 0.0 2.6 0.00 0.00 0.00 55 1012.5
20260505073654 59 322 2.6 4.3 0.00 0.00 0.00 54 1012.4
20260505072634 55 230 0.9 1.7 0.00 0.00 0.00 58 1012.6
20260505071635 55 0.0 0.0 0.00 0.00 0.00 60 1012.5
20260505070635 56 0.0 0.9 0.00 0.00 0.00 54 1012.3
20260505065634 56 0.0 0.0 0.00 0.00 0.00 53 1012.2
20260505064714 56 0.0 0.0 0.00 0.00 0.00 56 1012.1
20260505063654 57 0.0 0.0 0.00 0.00 0.00 56 1012.0
20260505062634 61 256 0.9 1.7 0.00 0.00 0.00 47 1012.0
20260505061634 61 359 0.9 2.6 0.00 0.00 0.00 46 1012.0
20260505060634 62 29 1.7 4.3 0.00 0.00 0.00 45 1011.8
20260505055634 62 21 2.6 5.2 0.00 0.00 0.00 45 1011.8
20260505054635 62 13 1.7 5.2 0.00 0.00 0.00 45 1011.8
20260505053654 63 18 1.7 5.2 0.00 0.00 0.00 44 1011.8
20260505052634 64 19 0.9 3.5 0.00 0.00 0.00 43 1011.8
20260505051634 64 28 2.6 4.3 0.00 0.00 0.00 43 1011.7
20260505050654 64 21 2.6 6.1 0.00 0.00 0.00 43 1011.6
20260505041634 65 11 0.9 2.6 0.00 0.00 0.00 43 1011.3
20260505040654 65 19 1.7 2.6 0.00 0.00 0.00 42 1011.2
20260505035635 66 25 0.9 4.3 0.00 0.00 0.00 42 1010.9
20260505034634 67 5 3.5 6.1 0.00 0.00 0.00 41 1010.7
20260505033635 68 43 2.6 7.0 0.00 0.00 0.00 40 1010.5
20260505032654 69 35 3.5 7.0 0.00 0.00 0.00 38 1010.4
20260505031635 70 24 5.2 8.7 0.00 0.00 0.00 37 1010.2
20260505030635 71 26 7.0 11.3 0.00 0.00 0.00 35 1010.0
20260505025635 72 20 7.0 11.3 0.00 0.00 0.00 34 1009.8
20260505024635 73 68 6.1 12.2 0.00 0.00 0.00 34 1009.7
20260505023634 73 346 7.8 13.9 0.00 0.00 0.00 33 1009.6
20260505022635 74 23 6.1 10.4 0.00 0.00 0.00 33 1009.5
20260505021634 75 22 7.8 13.9 0.00 0.00 0.00 32 1009.5
20260505020634 75 33 7.0 12.2 0.00 0.00 0.00 32 1009.5
20260505015635 76 6 6.1 13.0 0.00 0.00 0.00 32 1009.4
20260505014655 76 47 6.1 10.4 0.00 0.00 0.00 33 1009.5
20260505013635 77 23 6.1 10.4 0.00 0.00 0.00 33 1009.5
20260505012635 78 356 4.3 8.7 0.00 0.00 0.00 33 1009.5
20260505011655 78 66 6.1 14.8 0.00 0.00 0.00 34 1009.5
20260505010655 79 354 7.0 14.8 0.00 0.00 0.00 33 1009.4
20260505005635 79 272 7.0 13.0 0.00 0.00 0.00 33 1009.4
20260505004635 80 52 7.0 13.0 0.00 0.00 0.00 35 1009.4
20260505003635 79 3 7.0 13.0 0.00 0.00 0.00 34 1009.5
20260505002635 80 225 7.0 11.3 0.00 0.00 0.00 34 1009.4
20260505001635 80 343 7.8 13.0 0.00 0.00 0.00 37 1009.5
20260505000635 81 18 4.3 8.7 0.00 0.00 0.00 34 1009.4
20260504235637 82 31 5.2 11.3 0.00 0.00 0.00 35 1009.4
20260504234655 80 2 6.1 9.6 0.00 0.00 0.00 36 1009.4
20260504233635 82 336 7.8 14.8 0.00 0.00 0.00 34 1009.4
20260504232635 81 351 6.1 11.3 0.00 0.00 0.00 34 1009.4
20260504231635 81 37 5.2 12.2 0.00 0.00 0.00 34 1009.4
20260504230655 81 17 6.1 13.0 0.00 0.00 0.00 34 1009.6
20260504225655 82 2 8.7 14.8 0.00 0.00 0.00 33 1009.8
20260504224637 81 349 5.2 9.6 0.00 0.00 0.00 33 1009.8
20260504223635 81 7 6.1 11.3 0.00 0.00 0.00 33 1010.0
20260504222655 81 33 7.0 12.2 0.00 0.00 0.00 33 1010.1
20260504221655 81 31 7.0 11.3 0.00 0.00 0.00 34 1010.1
20260504220635 82 66 7.0 13.0 0.00 0.00 0.00 33 1010.2
20260504215715 82 24 2.6 7.0 0.00 0.00 0.00 34 1010.3
20260504214635 80 360 4.3 8.7 0.00 0.00 0.00 36 1010.4
20260504213635 81 36 4.3 10.4 0.00 0.00 0.00 35 1010.4
20260504212735 80 47 5.2 13.0 0.00 0.00 0.00 36 1010.5
20260504211715 82 41 2.6 7.8 0.00 0.00 0.00 35 1010.5
20260504210635 81 60 3.5 9.6 0.00 0.00 0.00 34 1010.6
20260504205635 81 46 3.5 8.7 0.00 0.00 0.00 34 1010.7
20260504204635 81 18 6.1 10.4 0.00 0.00 0.00 33 1010.8
20260504203715 81 37 6.1 10.4 0.00 0.00 0.00 33 1010.9
20260504202636 80 15 3.5 7.0 0.00 0.00 0.00 33 1010.9
20260504201636 79 21 5.2 9.6 0.00 0.00 0.00 32 1011.1
20260504200635 78 39 6.1 11.3 0.00 0.00 0.00 34 1011.1
20260504195635 79 14 5.2 9.6 0.00 0.00 0.00 36 1011.2
20260504194635 78 33 5.2 10.4 0.00 0.00 0.00 36 1011.2
20260504193635 78 18 5.2 9.6 0.00 0.00 0.00 35 1011.4
20260504192635 78 11 5.2 10.4 0.00 0.00 0.00 37 1011.4
20260504191635 79 30 4.3 8.7 0.00 0.00 0.00 36 1011.5
20260504190635 78 25 3.5 7.8 0.00 0.00 0.00 38 1011.6
20260504185636 78 21 3.5 11.3 0.00 0.00 0.00 40 1011.7
20260504184636 77 21 5.2 11.3 0.00 0.00 0.00 43 1011.8
20260504183636 76 15 4.3 9.6 0.00 0.00 0.00 43 1011.9
20260504182636 75 10 5.2 10.4 0.00 0.00 0.00 44 1012.0
20260504181636 75 25 5.2 9.6 0.00 0.00 0.00 45 1012.1
20260504180636 75 33 4.3 8.7 0.00 0.00 0.00 44 1012.2
20260504175635 75 346 4.3 8.7 0.00 0.00 0.00 44 1012.2
20260504174635 74 34 6.1 9.6 0.00 0.00 0.00 45 1012.2
20260504173655 74 29 4.3 9.6 0.00 0.00 0.00 45 1012.1
20260504172636 73 293 1.7 4.3 0.00 0.00 0.00 46 1012.2
20260504171636 72 18 0.9 3.5 0.00 0.00 0.00 45 1012.3
20260504170636 71 160 1.7 5.2 0.00 0.00 0.00 46 1012.4
20260504150636 57 151 3.5 5.2 0.00 0.00 0.00 66 1012.7
20260504140636 48 204 0.0 1.7 0.00 0.00 0.00 79 1012.9
20260504130636 42 0.0 0.0 0.00 0.00 0.00 90 1012.7
20260504110636 44 0.0 0.0 0.00 0.00 0.00 86 1012.7